This demonstration page uses our WeatherBlox Daily Observations layout. Learn more.

Left ArrowRight Arrow

Hourly Observations for February 8, 2020

Temp ( °F °C ) Dew Point ( °F °C ) Humidity (%) Winds ( mph kmh ) Pressure ( in mb ) Visibility ( mi km ) Precip ( " mm )
12:53 am 00:53 Cloudy 30 -1.1 25 -3.9 82 82 VRB 3 6 30.09 1019 10 16 N/A
1:53 am 01:53 Cloudy 30 -1.1 25 -3.9 82 82 SW 5 7 30.10 1019 10 16 N/A
2:53 am 02:53 Cloudy 30 -1.1 25 -3.9 82 82 SSW 3 6 30.11 1020 10 16 N/A
3:53 am 03:53 Mostly Cloudy 30 -1.1 25 -3.9 82 82 SSW 3 6 30.12 1020 10 16 N/A
4:53 am 04:53 Cloudy 30 -1.1 25 -3.9 82 82 SSE 5 7 30.11 1020 10 16 N/A
5:53 am 05:53 Cloudy with Light Snow 30 -1.1 26 -3.3 85 85 S 5 7 30.11 1020 6 10 0.00 0.00
6:07 am 06:07 Cloudy with Light Snow 30 -1.1 26 -3.3 85 85 SSE 3 6 30.14 1021 2 3 0.00 0.00
6:19 am 06:19 Cloudy with Light Snow 29 -1.7 27 -2.8 92 92 S 5 7 30.14 1021 2 3 0.00 0.00
6:26 am 06:26 Cloudy with Light Snow 29 -1.7 27 -2.8 92 92 N N/A 30.14 1021 2 2 0.00 0.00
6:34 am 06:34 Cloudy with Light Snow 29 -1.7 27 -2.8 92 92 VRB 3 6 30.14 1021 1 2 0.00 0.00
6:53 am 06:53 Cloudy with Light Snow 29 -1.7 27 -2.8 92 92 SSE 5 7 30.12 1020 2 2 0.01 0.25
7:07 am 07:07 Cloudy with Light Snow 29 -1.7 27 -2.8 92 92 VRB 5 7 30.14 1021 2 3 0.00 0.00
7:15 am 07:15 Cloudy with Light Snow 29 -1.7 27 -2.8 92 92 N N/A 30.14 1021 3 5 0.00 0.00
7:30 am 07:30 Cloudy with Light Snow 29 -1.7 28 -2.2 96 96 N N/A 30.15 1021 3 4 0.01 0.25
7:51 am 07:51 Cloudy with Light Snow 28 -2 28 -2 100 100 N N/A 30.15 1021 3 4 0.01 0.25
7:53 am 07:53 Cloudy with Light Snow 29 -1.7 27 -2.8 92 92 N N/A 30.13 1020 3 4 0.01 0.25
8:00 am 08:00 Cloudy with Light Snow 29 -1.7 28 -2.2 96 96 VRB 5 7 30.15 1021 2 2 0.00 0.00
8:37 am 08:37 Cloudy with Light Snow 30 -1.1 28 -2.2 92 92 N N/A 30.16 1021 2 3 0.01 0.25
8:48 am 08:48 Cloudy with Light Snow 30 -1 28 -2 93 93 N N/A 30.16 1021 4 6 0.01 0.25
8:53 am 08:53 Cloudy with Mist and Fog 30 -1.1 28 -2.2 92 92 N N/A 30.14 1021 4 6 0.01 0.25
9:00 am 09:00 Cloudy with Mist and Fog 30 -1.1 27 -2.8 88 88 N N/A 30.16 1021 6 10 N/A
9:39 am 09:39 Cloudy with Light Snow 31 -0.6 28 -2.2 89 89 N N/A 30.16 1021 2 3 0.00 0.00
9:46 am 09:46 Cloudy with Light Snow 31 -0.6 28 -2.2 89 89 N N/A 30.16 1021 1 1 0.00 0.00
9:53 am 09:53 Cloudy with Snow 31 -0.6 29 -1.7 92 92 S 3 6 30.14 1021 1 1 0.01 0.25
10:11 am 10:11 Cloudy with Light Snow 31 -0.6 29 -1.7 92 92 VRB 3 6 30.17 1022 2 2 0.00 0.00
10:36 am 10:36 Cloudy with Light Snow 32 undefined 29 -1.7 88 88 VRB 3 6 30.16 1021 2 3 0.00 0.00
10:53 am 10:53 Cloudy with Light Snow 32 undefined 29 -1.7 88 88 S 3 6 30.15 1021 3 5 0.00 0.00
10:55 am 10:55 Cloudy with Light Snow 32 undefined 29 -1.7 88 88 S 3 6 30.16 1021 2 3 0.01 0.25
11:02 am 11:02 Cloudy with Light Snow 32 undefined 29 -1.7 88 88 S 3 6 30.16 1021 1 2 0.01 0.25
11:23 am 11:23 Cloudy with Light Snow 33 0.6 30 -1.1 89 89 SSW 5 7 30.17 1022 3 5 0.01 0.25
11:30 am 11:30 Cloudy with Light Snow 33 0.6 30 -1.1 89 89 SSW 3 6 30.17 1022 2 3 0.01 0.25
11:37 am 11:37 Cloudy with Light Snow 33 0.6 30 -1.1 89 89 SW 3 6 30.17 1022 2 2 0.01 0.25
11:41 am 11:41 Cloudy with Light Snow 33 0.6 30 -1.1 89 89 SSW 3 6 30.17 1022 2 3 0.01 0.25
11:51 am 11:51 Cloudy with Light Snow 34 1 30 -1 87 87 SW 5 7 30.17 1022 5 8 0.01 0.25
11:53 am 11:53 Cloudy with Light Snow 33 0.6 30 -1.1 89 89 VRB 3 6 30.16 1021 4 6 0.01 0.25
12:53 pm 12:53 Cloudy 34 1.1 30 -1.1 85 85 WSW 6 9 30.16 1021 10 16 0.00 0.00
1:53 pm 13:53 Cloudy 34 1.1 30 -1.1 85 85 W 7 11 30.16 1021 10 16 N/A
2:05 pm 14:05 Cloudy 35 1.7 30 -1.1 82 82 WSW 5 7 30.17 1022 10 16 N/A
2:53 pm 14:53 Cloudy 35 1.7 30 -1.1 82 82 W 6 9 30.17 1022 10 16 0.00 0.00
3:44 pm 15:44 Cloudy 35 1.7 29 -1.7 78 78 W 7 11 30.20 1023 10 16 N/A
3:53 pm 15:53 Cloudy with Light Snow 35 1.7 29 -1.7 78 78 W 6 9 30.19 1023 7 11 0.00 0.00
4:53 pm 16:53 Cloudy 35 1.7 28 -2.2 76 76 WSW 6 9 30.22 1023 10 16 0.00 0.00
5:53 pm 17:53 Cloudy 35 1.7 28 -2.2 76 76 W 6 9 30.24 1024 10 16 N/A
6:53 pm 18:53 Cloudy 34 1.1 27 -2.8 76 76 W 5 7 30.26 1025 10 16 N/A
7:50 pm 19:50 Cloudy 34 1 28 -2 81 81 WSW 3 6 30.30 1026 10 16 N/A
7:53 pm 19:53 Cloudy 33 0.6 28 -2.2 82 82 WSW 3 6 30.29 1026 10 16 N/A
8:53 pm 20:53 Cloudy 33 0.6 29 -1.7 85 85 WSW 3 6 30.29 1026 9 14 0.00 0.00
9:53 pm 21:53 Cloudy 32 undefined 28 -2.2 85 85 WSW 5 7 30.31 1027 10 16 N/A
10:53 pm 22:53 Mostly Cloudy 29 -1.7 27 -2.8 92 92 N N/A 30.32 1027 9 14 N/A
11:16 pm 23:16 Cloudy 29 -1.7 27 -2.8 92 92 N N/A 30.35 1028 9 14 N/A
11:53 pm 23:53 Cloudy 30 -1.1 27 -2.8 88 88 WSW 3 6 30.34 1027 10 16 N/A

Powered by AerisWeather